Weather Roundup
Issued by NWS Chicago, IL

Home | Current Version | Previous Version | Graphics & Text | Print | Product List | Glossary On
Versions: 1 2 3 4 5 6 7 8 9 10 11 12 13 14 15 16 17 18 19 20 21 22 23 24 25 26 27 28 29 30 31 32 33 34 35 36 37 38 39 40 41 42 43 44 45 46 47 48 49 50
281
NZUS59 KLOT 251612
HRRLOT

CHICAGO AREA WEATHER ROUNDUP
NATIONAL WEATHER SERVICE CHICAGO/ROMEOVILLE IL
1000 AM CST SAT FEB 25 2017

NOTE: "FAIR" INDICATES FEW OR NO CLOUDS BELOW 12,000 FEET WITH NO
SIGNIFICANT WEATHER AND/OR OBSTRUCTIONS TO VISIBILITY.

* THESE STATIONS ARE NOT UNDER NWS QUALITY CONTROL. THEY ALSO MAY NOT
  REPORT WEATHER SUCH AS PRECIPITATION OR FOG.

ILZ005-006-012>014-019>023-251700-
NORTHEAST ILLINOIS

CITY           SKY/WX    TMP DP  RH WIND       PRES   REMARKS
OHARE          FLURRIES  24  14  65 W16G25    29.82R WCI  11
MIDWAY         FLURRIES  24  13  62 W18       29.83R WCI  10
AURORA         CLOUDY    24  14  65 NW20G25   29.85R WCI  10
LANSING*       CLOUDY    24  16  72 W18G25    29.84R WCI  10
JOLIET*        LGT SNOW  25  17  70 W9G21     29.87R WCI  15
WAUKEGAN       LGT SNOW  23  14  68 W9G20     29.79R WCI  13
DUPAGE AIRPORT FLURRIES  22  13  68 NW14G26   29.83R WCI   9
WHEELING       FLURRIES  22  13  68 W12       29.83R WCI  10
KANKAKEE*      FLURRIES  24  15  68 W16G26    29.88R WCI  11
MORRIS*        LGT SNOW  25  17  72 W20       29.87R WCI  10
LEWIS AIRPORT* LGT SNOW  23  18  82 W17       29.86R WCI   9
NORTHERLY ISL    N/A     23  14  68 W14         N/A  WCI  11
$$

WIZ051-052-058>065-066-070>072-251700-
SOUTHEAST WISCONSIN

CITY           SKY/WX    TMP DP  RH WIND       PRES   REMARKS
MILWAUKEE      FLURRIES  23  12  62 NW16G26   29.77R WCI  10
KENOSHA*       CLOUDY    22  13  68 W20       29.78R WCI   7
RACINE*        CLOUDY    22  12  65 NW15G24   29.79R WCI   9
WAUKESHA       CLOUDY    18  10  73 W20G30    29.78R WCI   1
WEST BEND      LGT SNOW  19  14  79 W8        29.75R WCI   9
$$

INZ001>003-010>013-019-020-251700-
NORTHWEST INDIANA

CITY           SKY/WX    TMP DP  RH WIND       PRES   REMARKS
GARY*          FLURRIES  27  14  59 W12G23    29.84R WCI  16
MICHIGAN CITY* NOT AVBL
RENSSELAER*    NOT AVBL
VALPARAISO     CLOUDY    26  15  63 W18G30    29.81R WCI  13
$$

LMZ740>746-251700-
SOUTHERN LAKE MICHIGAN

STATION/POSITION TIME  SKY/WX   TEMP WIND        PRES    VSBY
                                AIR  DIR/SP/G
                 (UTC)          (F)  (DEG/KT/KT) (MB)    (MI)
HARRISON CRIB    1540            23  300/ 20/ 23   N/A
BURNHAM HARBOR   1600            23  230/ 12/ 16   N/A
CALUMET HARBOR   1548            23  270/  9/ 18 1009.5R
BURNS HARBOR     1540            25  280/ 20/ 24 1009.8R
MICHIGAN CITY    1540            24  250/ 25/ 29   N/A
$$

ABBREVIATIONS USED IN REMARKS
   TC - TEMPERATURE IN CELSIUS
  WCI - WIND CHILL INDEX
   HX - HEAT INDEX
  VSB - VISIBILITY
$$




USA.gov is the U.S. government's official web portal to all federal, state and local government web resources and services.